Terminal Aerodrome Forecast
Issued by NWS Portland, OR

Home | Current Version | Previous Version | Text Only | Print | Product List | Glossary On
Versions: 1 2 3 4 5 6 7 8 9 10 11 12 13 14 15
000
FTUS46 KPQR 180537
TAFSLE
TAF
KSLE 180537Z 1806/1906 18006KT P6SM SCT025 BKN080
     FM181400 18008KT P6SM BKN022 OVC035
     FM182300 18006KT P6SM SCT025 OVC050=

USA.gov is the U.S. government's official web portal to all federal, state and local government web resources and services.